{"data":{"norad_id":52126,"intl_designator":"2022-029AQ","name":"STARLINK-3732","alt_names":[],"object_type":"PAYLOAD","status":"ACTIVE","operator":null,"country":"US","launch_date":"2022-03-19","launch_site_code":"AFETR","launch_vehicle":null,"mission":null,"orbit_class":"UNKNOWN","rcs_meters":null,"size_class":null,"mass_kg":null,"dimensions":null,"purposes":["comms"],"wikipedia_slug":null,"has_3d_model":false,"image_url":null,"decayed_at":null,"tle_current":{"epoch":"2026-09-19T13:49:21.666144Z","epoch_age_seconds":135679,"freshness":"FRESH","line1":"1 52126U 22029AQ  26262.57594521  .00000403  00000+0  22463-4 0  9994","line2":"2 52126  53.1602 273.8074 0001270  81.5219 278.5928 15.35403635250252","mean_motion":15.35403635,"eccentricity":0.000127,"inclination_deg":53.1602,"raan_deg":273.8074,"arg_perigee_deg":81.5219,"mean_anomaly_deg":278.5928,"bstar":2.2463e-5,"rev_number":25025,"period_min":93.786413368756,"perigee_km":458.85344242744,"apogee_km":460.59025857547,"semimajor_km":6837.8588505015,"source":"CELESTRAK","updated_at":"2026-09-20T09:00:39.990740Z"}}}